Location: Oteiza
(42.6167°N, 1.9500°W)
Time: 03:27:51
(UTC+01:00)

ISS - Visible Passes

Search period start: 24 March 2019 00:00
Search period end: 03 April 2019 01:00
Orbit: 408 x 411 km, 51.6° (Epoch: 23 March)

Date Brightness Start Highest point End Pass type
(mag) Time Alt. Az. Time Alt. Az. Time Alt. Az.
24 Mar -2.2 21:05:30 10° W 21:08:31 32° NNW 21:09:56 22° NNE visible
25 Mar -2.9 20:14:33 10° WSW 20:17:46 48° NNW 20:21:00 10° NE visible
25 Mar -1.1 21:52:31 10° NW 21:54:25 18° NNW 21:54:25 18° NNW visible
26 Mar -1.5 21:01:25 10° WNW 21:04:03 21° NNW 21:06:00 14° NNE visible
27 Mar -1.9 20:10:17 10° W 20:13:11 27° NNW 20:16:05 10° NE visible
27 Mar -1.2 21:48:18 10° NW 21:50:14 17° N 21:50:14 17° N visible
28 Mar -1.3 20:57:17 10° NW 20:59:37 17° N 21:01:38 11° NE visible
29 Mar -1.5 20:06:10 10° WNW 20:08:40 20° NNW 20:11:11 10° NE visible
29 Mar -1.4 21:43:43 10° NW 21:45:44 18° N 21:45:44 18° N visible
30 Mar -1.4 20:52:54 10° NW 20:55:10 17° N 20:57:03 12° NE visible
30 Mar -0.4 22:29:26 10° NW 22:29:48 12° NW 22:29:48 12° NW visible
31 Mar -1.4 21:01:55 10° NW 21:04:12 17° N 21:06:28 10° NE visible
31 Mar -1.8 22:38:48 10° NW 22:41:05 24° N 22:41:05 24° N visible
01 Apr -1.7 21:48:07 10° NW 21:50:40 20° NNE 21:52:22 14° NE visible
01 Apr -0.6 23:24:25 10° NW 23:25:07 15° NW 23:25:07 15° NW visible
02 Apr -2.6 22:33:45 10° NW 22:36:24 37° N 22:36:24 37° N visible
